This demonstration page uses our WeatherBlox Daily Observations layout. Learn more.

Left ArrowRight Arrow

34.16533, -84.80231

Hourly Observations for September 30, 2017

Temp ( °F °C ) Dew Point ( °F °C ) Humidity (%) Winds ( mph kmh ) Pressure ( in mb ) Visibility ( mi km ) Precip ( " mm )
12:53 am 00:53 Clear 67 19.4 56 13.3 68 68 VRB 3 6 30.05 1018 10 16 0.00 0.00
1:53 am 01:53 Clear 65 18.3 56 13.3 73 73 N 3 6 30.05 1018 10 16 0.00 0.00
2:53 am 02:53 Mostly Cloudy 65 18.3 55 12.8 70 70 Calm 30.06 1018 10 16 0.00 0.00
3:53 am 03:53 Cloudy 64 17.8 55 12.8 73 73 N 5 7 30.06 1018 10 16 0.00 0.00
4:53 am 04:53 Mostly Cloudy 64 17.8 55 12.8 73 73 N 5 7 30.07 1018 10 16 0.00 0.00
5:53 am 05:53 Mostly Cloudy 63 17.2 55 12.8 76 76 VRB 5 7 30.08 1019 10 16 0.00 0.00
6:53 am 06:53 Partly Cloudy 60 15.6 55 12.8 84 84 VRB 3 6 30.09 1019 10 16 0.00 0.00
7:53 am 07:53 Cloudy 62 16.7 55 12.8 78 78 Calm 30.11 1020 10 16 0.00 0.00
8:53 am 08:53 Mostly Sunny 65 18.3 56 13.3 73 73 NNW 3 6 30.12 1020 10 16 0.00 0.00
9:53 am 09:53 Cloudy 67 19.4 57 13.9 71 71 NE 3 6 30.14 1021 10 16 0.00 0.00
10:53 am 10:53 Cloudy 70 21.1 58 14.4 66 66 Calm 30.14 1021 10 16 0.00 0.00
11:53 am 11:53 Cloudy 78 25.6 56 13.3 47 47 VRB 5 7 30.14 1021 10 16 0.00 0.00
12:53 pm 12:53 Sunny 78 25.6 54 12.2 43 43 NE 5 7 30.13 1020 10 16 0.00 0.00
1:53 pm 13:53 Partly Cloudy 80 26.7 54 12.2 41 41 E 9 15 30.12 1020 10 16 0.00 0.00
2:53 pm 14:53 Sunny 80 26.7 55 12.8 42 42 E 8 13 30.09 1019 10 16 0.00 0.00
3:53 pm 15:53 Mostly Sunny 80 26.7 55 12.8 42 42 E 5 7 30.09 1019 10 16 0.00 0.00
4:53 pm 16:53 Sunny 80 26.7 56 13.3 44 44 VRB 6 9 30.08 1019 10 16 0.00 0.00
5:53 pm 17:53 Sunny 80 26.7 56 13.3 44 44 ENE 6 9 30.08 1019 10 16 0.00 0.00
6:53 pm 18:53 Sunny 73 22.8 62 16.7 69 69 Calm 30.09 1019 10 16 0.00 0.00
7:53 pm 19:53 Clear 65 18.3 62 16.7 90 90 Calm 30.10 1019 10 16 0.00 0.00
8:53 pm 20:53 Partly Cloudy 64 17.8 62 16.7 93 93 Calm 30.11 1020 10 16 0.00 0.00
9:53 pm 21:53 Mostly Clear 61 16.1 60 15.6 97 97 Calm 30.13 1020 10 16 0.00 0.00
10:53 pm 22:53 Clear 59 15 59 15 100 100 Calm 30.14 1021 10 16 0.00 0.00
11:53 pm 23:53 Clear 58 14.4 58 14.4 100 100 Calm 30.15 1021 10 16 0.00 0.00

Powered by AerisWeather